This is the latest recevied weather packets stored in our database for station/object HI3LT-13. If no packets are shown the sender has not sent any weather packets the latest 10 day(s).
| Time | Temp. | Humidity | Pressure | Rain* | Wind** | Luminosity | Snow |
|---|---|---|---|---|---|---|---|
| 1788535529 | 31.67° C | 69% | 1016 hPa | 0 mm | - | - | - |
| 1788534928 | 30.56° C | 70% | 1016 hPa | 0 mm | - | - | - |
| 1788534327 | 31.11° C | 72% | 1016 hPa | 0 mm | - | - | - |
| 1788533751 | 31.11° C | 72% | 1016 hPa | 0 mm | - | - | - |
| 1788533125 | 32.22° C | 72% | 1016 hPa | 0 mm | - | - | - |
| 1788532524 | 30° C | 70% | 1016 hPa | 0 mm | - | - | - |
| 1788531923 | 29.44° C | 72% | 1016 hPa | 0 mm | - | - | - |
| 1788531322 | 31.11° C | 72% | 1016 hPa | 0 mm | - | - | - |
| 1788530721 | 30.56° C | 73% | 1016 hPa | 0 mm | - | - | - |
| 1788530120 | 28.89° C | 71% | 1016 hPa | 0 mm | - | - | - |
| 1788529519 | 32.22° C | 71% | 1016 hPa | 0 mm | - | - | - |
| 1788528918 | 26.67° C | 69% | 1016 hPa | 0 mm | - | - | - |
| 1788528317 | 27.22° C | 77% | 1016 hPa | 0 mm | - | - | - |
| 1788527716 | 27.78° C | 82% | 1016 hPa | 0 mm | - | - | - |
| 1788527115 | 30° C | 93% | 1016 hPa | 0 mm | - | - | - |
| 1788526513 | 28.89° C | 93% | 1016 hPa | 0 mm | - | - | - |
| 1788525912 | 28.89° C | 91% | 1016 hPa | 0 mm | - | - | - |
| 1788525310 | 23.89° C | 93% | 1016 hPa | 0 mm | - | - | - |
| 1788524935 | 23.89° C | 93% | 1016 hPa | 0 mm | - | - | - |
| 1788524334 | 23.89° C | 95% | 1016 hPa | 0 mm | - | - | - |
| 1788523734 | 23.89° C | 98% | 1016 hPa | 0 mm | - | - | - |
| 1788523133 | 22.22° C | 96% | 1016 hPa | 0 mm | - | - | - |
| 1788522532 | 23.33° C | 97% | 1016 hPa | 0 mm | - | - | - |
| 1788521932 | 22.22° C | 96% | 1015 hPa | 0 mm | - | - | - |
| 1788521331 | 22.22° C | 96% | 1015 hPa | 0 mm | - | - | - |
* Rain latest hour (hover to see other rain measurements)
** Current wind speed in m/s (hover to see current wind gust speed)